Regional Weather Roundup
Issued by NWS

Home | Current Version | Previous Version | Text Only | Print | Product List | Glossary Off
Versions: 1 2 3 4 5 6 7 8 9 10 11 12 13 14 15 16 17 18 19 20 21 22 23 24 25 26 27 28 29 30 31 32 33 34 35 36 37 38 39 40 41 42 43 44 45 46 47 48 49 50

921
ASUS43 KFSD 301902
RWRSD

WEATHER ROUNDUP FOR SOUTH DAKOTA
NATIONAL WEATHER SERVICE SIOUX FALLS SD
200 PM CDT THU MAR 30 2017

NOTE: "FAIR" INDICATES FEW OR NO CLOUDS BELOW 12,000 FEET WITH NO
SIGNIFICANT WEATHER AND/OR OBSTRUCTIONS TO VISIBILITY.


SDZ001>005-009-010-012>017-302000-
NORTHWEST AND NORTH CENTRAL SOUTH DAKOTA

CITY           SKY/WX    TMP DP  RH WIND       PRES   REMARKS
BUFFALO          N/A     59  38  45 SE18      29.65F
FAITH            N/A     48  39  71 S16       29.77S
MOBRIDGE       CLOUDY    47  35  63 SE15      29.81F
$$

SDZ012>016-024>037-041>051-057-063-072>074-302000-
SOUTHWEST AND SOUTH CENTRAL SOUTH DAKOTA

CITY           SKY/WX    TMP DP  RH WIND       PRES   REMARKS
RAPID CTY ARPT CLOUDY    51  38  60 SE17      29.74F
PIERRE         CLOUDY    42  34  73 SE9       29.84S
CUSTER         CLOUDY    47  32  56 E7        29.74S
ELLSWORTH AFB  MOSUNNY   51  41  67 S12G22    29.73S
PHILIP         CLOUDY    45  37  73 SE12      29.79F
PINE RIDGE     CLOUDY    53  34  48 E7        29.75F
SPEARFISH      FAIR      50  41  71 E5        29.72F
WINNER         CLOUDY    45  35  68 CALM      29.83F
$$

SDZ004>011-016>023-039-040-302000-
NORTHEAST SOUTH DAKOTA

CITY           SKY/WX    TMP DP  RH WIND       PRES   REMARKS
ABERDEEN       CLOUDY    44  33  65 E6        29.87F
WATERTOWN      CLOUDY    43  36  76 NE8       29.84S
BROOKINGS      CLOUDY    41  36  82 NE9       29.81F
SISSETON         N/A     46  37  71 SE3       29.86
$$

SDZ017-020-022-023-036>040-048>070-302000-
SOUTHEAST SOUTH DAKOTA

CITY           SKY/WX    TMP DP  RH WIND       PRES   REMARKS
SIOUX FALLS    CLOUDY    44  38  79 NE15      29.79F
HURON          CLOUDY    46  36  68 E6        29.84F
CHAMBERLAIN    CLOUDY    48  37  66 N3        29.83F
MITCHELL       CLOUDY    48  36  63 NE13      29.83F
YANKTON        CLOUDY    43  36  75 N15       29.79F
$$

ABBREVIATIONS USED IN REMARKS
   TC - TEMPERATURE IN CELSIUS
  WCI - WIND CHILL INDEX
   HX - HEAT INDEX
  VSB - VISIBILITY





USA.gov is the U.S. government's official web portal to all federal, state and local government web resources and services.